Starlink 32003

operational
NORAD ID: 60097 Int'l Des: 2024-117 Owner: SPXS Country: US Constellation: starlink
LEOCIRCULAR

关于 Starlink 32003

正在加载描述...

实时位置

正在加载3D地球...

即将过境

高度历史

Altitude vs Time

uPlot chart will show altitude changes over time

两行轨道根数

1 60097U 24117G 25350.44849750 .00010134 00000-0 35362-3 0 9994
2 60097 53.1585 63.6461 0001164 81.8355 278.2778 15.30216216 84144
Epoch: Dec 16, 2025 • Age: 22 hours

当前状态

高度 475.0 km
速度 7.63 km/s
星下点 13.30°N, 148.43°W
发射日期 Jun 23, 2024
运行时间 1.4 years
类型 internet

技术详情

分类 Payload
质量 730.00 kg
干质量 700.00 kg
总质量 730.00 kg
长度 0.30 m
直径 4.10 m
跨度 29.00 m
形状 Box + pan
制造商 SPXS
平台类型 Starlink V2M
阶段状态 In Orbit
所有者/国家 SPXS/US

大型星座

Loading constellations...